Date String (YYYY-MM-DD hh:mm:ss) UTC,Instrument flags,absolute air pressure of the measurement (hPa),sample flow rate (lpm),inlet stack bypass flow (lpm),air temperature of the measurement (°C),ambient temperature measured by the external sensor (°C),aerosol sample conditioner tube jacket temperature (°C),OPC LED temperature (°C),internal box temperature (°C),relative humidity of the measurement (%),span deviation,mass concentration of particles derived from Lorenz-Mie calculation of OPC scattering (μg/m³),mass concentration of particles derived from Lorenz-Mie calculation of OPC scattering (μg/m³),mass concentration of particles derived from Lorenz-Mie calculation of OPC scattering (μg/m³)
DateTimeUTC,F1_M11,P_M11,Q1_M11,Q2_M11,T1_M11,T2_M11,T3_M11,T4_M11,T5_M11,U1_M11,ZSPAN_M11,X0_M11,X2_M11,X1_M11
2023-10-05 08:00:00,SystemResetWarning,0835.3,5.00,000.00,029.5,028.0,000.0,037.9,031.1,12.4,0000.0,0001.87,0001.27,0001.11
2023-10-05 08:01:00,SystemResetWarning,0835.3,5.00,000.00,029.5,028.0,000.0,037.9,031.1,12.5,0000.0,0001.91,0001.30,0001.12
2023-10-05 08:02:00,SystemResetWarning,0835.3,5.00,000.00,029.5,028.0,000.0,037.9,031.1,12.5,0000.0,0001.95,0001.33,0001.14
2023-10-05 08:03:00,SystemResetWarning,0835.2,5.00,000.00,029.5,028.0,000.0,037.9,031.1,12.5,0000.0,0001.99,0001.37,0001.16
2023-10-05 08:04:00,SystemResetWarning,0835.3,5.00,000.00,029.5,028.0,000.0,037.9,031.1,12.6,0000.0,0003.21,0001.39,0001.17
2023-10-05 08:05:00,SystemResetWarning,0835.3,5.00,000.00,029.5,028.0,000.0,037.9,031.1,12.7,0000.0,0003.52,0001.39,0001.17
2023-10-05 08:06:00,SystemResetWarning,0835.3,5.01,000.00,029.5,028.0,000.0,037.9,031.1,12.7,0000.0,0003.54,0001.37,0001.17
2023-10-05 08:07:00,SystemResetWarning,0835.2,5.01,000.00,029.5,028.0,000.0,037.9,031.1,12.6,0000.0,0003.50,0001.36,0001.19
2023-10-05 08:08:00,SystemResetWarning,0835.2,5.01,000.00,029.5,028.0,000.0,037.9,031.1,12.7,0000.0,0003.49,0001.36,0001.19
2023-10-05 08:09:00,SystemResetWarning,0835.3,5.00,000.00,029.5,028.0,000.0,037.9,031.1,12.7,0000.0,0003.57,0001.40,0001.20
2023-10-05 08:10:00,SystemResetWarning,0835.3,5.00,000.00,029.5,028.1,000.0,037.9,031.1,12.7,0000.0,0004.03,0001.39,0001.18
2023-10-05 08:11:00,SystemResetWarning,0835.4,4.99,000.00,029.5,028.1,000.0,037.9,031.1,12.7,0000.0,0004.34,0001.39,0001.19
2023-10-05 08:12:00,SystemResetWarning,0835.5,4.99,000.00,029.5,028.0,000.0,037.9,031.1,12.7,0000.0,0004.37,0001.41,0001.21
2023-10-05 08:13:00,SystemResetWarning,0835.5,5.00,000.00,029.5,028.0,000.0,037.9,031.1,12.7,0000.0,0004.46,0001.43,0001.23
2023-10-05 08:14:00,SystemResetWarning,0835.5,5.00,000.00,029.5,028.0,000.0,038.0,031.1,12.7,0000.0,0005.40,0001.42,0001.24
2023-10-05 08:15:00,SystemResetWarning,0835.5,5.01,000.00,029.5,028.0,000.0,037.9,031.1,12.7,0000.0,0004.56,0001.41,0001.24
2023-10-05 08:16:00,SystemResetWarning,0835.5,5.00,000.00,029.5,028.0,000.0,037.9,031.1,12.7,0000.0,0003.88,0001.41,0001.24
2023-10-05 08:17:00,SystemResetWarning,0835.5,5.01,000.00,029.5,028.0,000.0,037.9,031.1,12.7,0000.0,0003.93,0001.42,0001.26
2023-10-05 08:18:00,SystemResetWarning,0835.5,5.00,000.00,029.5,028.1,000.0,037.9,031.1,12.7,0000.0,0004.02,0001.42,0001.25
2023-10-05 08:19:00,SystemResetWarning,0835.4,5.00,000.00,029.5,028.1,000.0,037.9,031.1,12.7,0000.0,0004.10,0001.47,0001.26
2023-10-05 08:20:00,SystemResetWarning,0835.4,4.99,000.00,029.5,028.1,000.0,037.9,031.1,12.8,0000.0,0004.06,0001.46,0001.27
2023-10-05 08:21:00,SystemResetWarning,0835.4,4.99,000.00,029.5,028.1,000.0,037.9,031.1,12.9,0000.0,0003.71,0001.44,0001.28
2023-10-05 08:22:00,SystemResetWarning,0835.4,5.00,000.00,029.5,028.1,000.0,037.9,031.1,12.9,0000.0,0003.22,0001.44,0001.28
2023-10-05 08:23:00,SystemResetWarning,0835.3,5.00,000.00,029.5,028.1,000.0,037.9,031.2,12.9,0000.0,0003.33,0001.43,0001.26
2023-10-05 08:24:00,SystemResetWarning,0835.3,5.00,000.00,029.5,028.1,000.0,037.9,031.1,12.9,0000.0,0003.22,0001.41,0001.26
2023-10-05 08:25:00,SystemResetWarning,0835.3,5.00,000.00,029.5,028.1,000.0,037.9,031.1,12.9,0000.0,0002.22,0001.38,0001.25
2023-10-05 08:26:00,SystemResetWarning,0835.3,5.00,000.00,029.5,028.1,000.0,037.9,031.2,12.9,0000.0,0002.23,0001.39,0001.26
2023-10-05 08:27:00,SystemResetWarning,0835.5,5.01,000.00,029.5,028.1,000.0,037.9,031.1,12.9,0000.0,0002.23,0001.40,0001.26
2023-10-05 08:28:00,SystemResetWarning,0835.4,5.01,000.00,029.5,028.1,000.0,038.0,031.1,12.9,0000.0,0002.21,0001.43,0001.26
2023-10-05 08:29:00,SystemResetWarning,0835.3,5.00,000.00,029.5,028.1,000.0,038.0,031.1,12.9,0000.0,0002.18,0001.46,0001.28
2023-10-05 08:30:00,SystemResetWarning,0835.4,4.99,000.00,029.5,028.1,000.0,038.0,031.2,12.9,0000.0,0002.16,0001.44,0001.27
2023-10-05 08:31:00,SystemResetWarning,0835.5,4.99,000.00,029.5,028.1,000.0,038.0,031.2,12.9,0000.0,0002.19,0001.44,0001.26
2023-10-05 08:32:00,SystemResetWarning,0835.5,5.00,000.00,029.5,028.1,000.0,038.0,031.1,12.9,0000.0,0002.31,0001.49,0001.28
2023-10-05 08:33:00,SystemResetWarning,0835.5,5.00,000.00,029.5,028.1,000.0,038.0,031.1,12.9,0000.0,0002.44,0001.53,0001.29
2023-10-05 08:34:00,SystemResetWarning,0835.5,5.01,000.00,029.5,028.1,000.0,038.0,031.1,12.9,0000.0,0002.57,0001.63,0001.31
2023-10-05 08:35:00,SystemResetWarning,0835.5,5.00,000.00,029.5,028.1,000.0,038.0,031.1,12.9,0000.0,0002.71,0001.69,0001.31
2023-10-05 08:36:00,SystemResetWarning,0835.6,5.00,000.00,029.5,028.1,000.0,038.0,031.1,12.8,0000.0,0002.83,0001.75,0001.32
2023-10-05 08:37:00,SystemResetWarning,0835.6,5.00,000.00,029.6,028.0,000.0,038.0,031.1,12.7,0000.0,0002.99,0001.80,0001.33
2023-10-05 08:38:00,SystemResetWarning,0835.6,5.00,000.00,029.5,028.0,000.0,038.0,031.1,12.7,0000.0,0003.08,0001.85,0001.35
2023-10-05 08:39:00,SystemResetWarning,0835.6,5.00,000.00,029.5,028.0,000.0,038.0,031.1,12.6,0000.0,0003.24,0001.86,0001.36
2023-10-05 08:40:00,SystemResetWarning,0835.6,5.00,000.00,029.5,028.0,000.0,038.0,031.1,12.7,0000.0,0003.31,0001.86,0001.37
2023-10-05 08:41:00,SystemResetWarning,0835.5,5.00,000.00,029.5,028.0,000.0,038.0,031.1,12.7,0000.0,0003.29,0001.86,0001.38
2023-10-05 08:42:00,SystemResetWarning,0835.5,5.00,000.00,029.5,028.0,000.0,038.0,031.1,12.7,0000.0,0003.27,0001.87,0001.39
2023-10-05 08:43:00,SystemResetWarning,0835.5,5.00,000.00,029.5,028.0,000.0,038.0,031.1,12.7,0000.0,0003.21,0001.86,0001.41
2023-10-05 08:44:00,SystemResetWarning,0835.5,5.00,000.00,029.5,028.0,000.0,038.0,031.1,12.7,0000.0,0003.16,0001.87,0001.42
2023-10-05 08:45:00,SystemResetWarning,0835.6,5.00,000.00,029.5,028.0,000.0,038.0,031.1,12.6,0000.0,0002.97,0001.82,0001.43
2023-10-05 08:46:00,SystemResetWarning,0835.6,4.99,000.00,029.5,028.0,000.0,038.0,031.1,12.7,0000.0,0004.19,0001.77,0001.45
2023-10-05 08:47:00,SystemResetWarning,0835.6,5.00,000.00,029.5,027.9,000.0,038.0,031.1,12.7,0000.0,0005.12,0001.78,0001.46
2023-10-05 08:48:00,SystemResetWarning,0835.6,5.00,000.00,029.5,027.9,000.0,038.0,031.0,12.8,0000.0,0005.07,0001.77,0001.47
2023-10-05 08:49:00,SystemResetWarning,0835.6,5.00,000.00,029.5,027.9,000.0,038.0,031.1,12.9,0000.0,0005.02,0001.75,0001.48
2023-10-05 08:50:00,SystemResetWarning,0835.6,5.00,000.00,029.5,027.9,000.0,038.0,031.1,13.1,0000.0,0004.94,0001.75,0001.48
2023-10-05 08:51:00,SystemResetWarning,0835.6,5.00,000.00,029.5,028.0,000.0,038.0,031.1,13.1,0000.0,0004.77,0001.75,0001.50
2023-10-05 08:52:00,SystemResetWarning,0835.7,5.01,000.00,029.5,028.0,000.0,038.0,031.0,13.2,0000.0,0005.03,0001.79,0001.52
2023-10-05 08:53:00,SystemResetWarning,0835.7,5.00,000.00,029.5,027.9,000.0,038.0,031.0,13.2,0000.0,0005.16,0001.83,0001.52
2023-10-05 08:54:00,SystemResetWarning,0835.7,4.99,000.00,029.5,028.0,000.0,038.0,031.1,13.3,0000.0,0005.58,0001.85,0001.51
2023-10-05 08:55:00,SystemResetWarning,0835.5,5.00,000.00,029.5,028.0,000.0,037.9,031.0,13.3,0000.0,0006.11,0001.83,0001.52
2023-10-05 08:56:00,SystemResetWarning,0835.5,5.00,000.00,029.5,028.0,000.0,038.0,031.0,13.2,0000.0,0006.40,0001.82,0001.52
2023-10-05 08:57:00,SystemResetWarning,0835.5,5.00,000.00,029.5,028.0,000.0,038.0,031.1,13.1,0000.0,0005.78,0001.82,0001.53
2023-10-05 08:58:00,SystemResetWarning,0835.6,5.00,000.00,029.5,028.0,000.0,038.0,031.1,13.1,0000.0,0005.85,0001.86,0001.54
2023-10-05 08:59:00,SystemResetWarning,0835.6,5.01,000.00,029.5,028.0,000.0,038.0,031.1,13.0,0000.0,0006.30,0001.87,0001.55
